Вернуться в каталог

COSMOS 2491 DEB

АктивенPO
NORAD 47110·DEBRIS·🇷🇺 Russia

Запущен Dec 25, 2013 с Plesetsk Cosmodrome

Loading…

Ближайшие Пролёты (ближайшие 24 часа)

TLE

УстаревающийSource: Space-Track

Эпоха: Sep 6, 2026, 18:48 UTC

1 47110U 13076AF  26249.78351745  .00001016  00000-0  57868-2 0  9997
2 47110  82.4425  81.8131 0094347   5.0405 355.1612 12.58899928301865

Отслеживайте COSMOS 2491 DEB в реальном времени с AllMySat

Download on the App Store